Regional Weather Roundup
Issued by NWS

Home | Current Version | Previous Version | Graphics & Text | Print | Product List | Glossary On
Versions: 1 2 3 4 5 6 7 8 9 10 11 12 13 14 15 16 17 18 19 20 21 22 23 24 25 26 27 28 29 30 31 32 33 34 35 36 37 38 39 40 41 42 43 44 45 46 47 48 49 50
000
ASUS43 KLMK 240502
RWRKY
KENTUCKY REGIONAL WEATHER ROUNDUP
NATIONAL WEATHER SERVICE LOUISVILLE KY
100 AM EDT MON APR 24 2017

NOTE "FAIR" INDICATES FEW OR NO CLOUDS BELOW 12,000 FEET
WITH NO SIGNIFICANT WEATHER AND/OR OBSTRUCTIONS TO VISIBILITY.

KYZ001>023-026-027-061>063-070>075-240600-
WESTERN AND SOUTH CENTRAL KENTUCKY

CITY           SKY/WX    TMP DP  RH WIND       PRES   REMARKS
PADUCAH        CLEAR     48  44  86 NW3       29.92F
HENDERSON      PTCLDY    50  43  77 N3        29.93F
OWENSBORO      MOCLDY    60  40  47 NE7       29.91F
HOPKINSVILLE   CLOUDY    52  49  91 NE10      29.87F
BOWLING GREEN  CLOUDY    55  49  80 N7        29.89R
GLASGOW        NOT AVBL
$$

KYZ024-025-028>034-038-045-046-053-240600-
NORTH CENTRAL KENTUCKY

CITY           SKY/WX    TMP DP  RH WIND       PRES   REMARKS
LOUISVILLE/SDF CLOUDY    60  43  53 NE6       29.94F
LOUISVILLE/LOU CLOUDY    60  41  49 NE3       29.95F
FORT KNOX      CLOUDY    54  48  82 N8        29.90F
$$

KYZ035>037-039>044-047>052-055>060-089>105-240600-
NORTHEAST KENTUCKY

CITY           SKY/WX    TMP DP  RH WIND       PRES   REMARKS
LEXINGTON      CLOUDY    56  46  69 E7        29.92F
COVINGTON      CLOUDY    56  38  50 NE6       29.95S
FRANKFORT      CLOUDY    58  45  62 N5        29.93S
$$

KYZ054-064>069-076>088-106>120-240600-
SOUTHEAST KENTUCKY

CITY           SKY/WX    TMP DP  RH WIND       PRES   REMARKS
JACKSON        LGT RAIN  51  49  92 CALM      29.90F
LONDON         CLOUDY    53  49  86 NE6       29.88S
SOMERSET       CLOUDY    52  52 100 N3        29.89S
MIDDLESBORO    CLOUDY    54  50  85 CALM      29.87S
MONTICELLO     CLOUDY    53  52  96 N15       29.88F FOG
$$





USA.gov is the U.S. government's official web portal to all federal, state and local government web resources and services.